Regional Weather Roundup
Issued by NWS

Home | Current Version | Previous Version | Text Only | Print | Product List | Glossary Off
Versions: 1 2 3 4 5 6 7 8 9 10 11 12 13 14 15 16 17 18 19 20 21 22 23 24 25 26 27 28 29 30 31 32 33 34 35 36 37 38 39 40 41 42 43 44 45 46 47 48 49 50

000
ASUS43 KMKX 050700
RWRWI

WISCONSIN REGIONAL WEATHER ROUNDUP
NATIONAL WEATHER SERVICE MILWAUKEE/SULLIVAN WI
200 AM CDT SAT SEP 05 2015

NOTE: "FAIR" INDICATES FEW OR NO CLOUDS BELOW 12,000 FEET WITH NO
SIGNIFICANT WEATHER AND/OR OBSTRUCTIONS TO VISIBILITY.

WIZ001-002-006>008-014>016-023>028-050800-
NORTHWEST WISCONSIN

CITY           SKY/WX    TMP DP  RH WIND       PRES   REMARKS
SUPERIOR ARPT  MOCLDY    59  57  94 N3        29.98S
ASHLAND        PTCLDY    62  62 100 CALM      30.00F
HAYWARD        MOCLDY    72  66  81 VRB5      30.02S
SIREN          PTCLDY    73  70  88 SE9       29.98S
CUMBERLAND     CLEAR     68  66  94 SE6       30.01S
RICE LAKE      CLEAR     70  66  87 SE7       30.03S
CHETEK         PTCLDY    70  67  92 SE6       30.02R
LADYSMITH      PTCLDY    70  66  88 SE7       30.05S
EAU CLAIRE     PTCLDY    72  67  84 SE6       30.00R
MENOMONIE      MOCLDY    73  71  93 E6        30.00S
NEW RICHMOND   MOCLDY    73  72  96 E5        29.98S
OSCEOLA        MOCLDY    74  74 100 SE7       29.99S
$$

WIZ003>005-009-010-017-018-050800-
NORTH CENTRAL WISCONSIN

CITY           SKY/WX    TMP DP  RH WIND       PRES   REMARKS
MANITOWISH WTR CLEAR     66  66 100 SE5       30.08S
ARBOR VITAE    CLEAR     66  64  94 SE3       30.08F
WOODRUFF       CLEAR     66  64  94 SE3       30.08F
RHINELANDER    MOCLDY    65  63  93 SE7       30.10S FOG
EAGLE RIVER    CLOUDY    64  64 100 S5        30.09S FOG
LAND O LAKES   CLOUDY    65  65  99 S6        30.10S FOG
PHILLIPS       CLOUDY    67  66  96 SE5       30.06R
TOMAHAWK       PTCLDY    63  62  96 CALM      30.09R FOG
MEDFORD        MOCLDY    66  65  99 SE6       30.07S FOG
MERRILL        CLOUDY    66  66 100 SE5       30.09S FOG
$$

WIZ029-030-035-036-043>047-050800-
CENTRAL WISCONSIN

CITY           SKY/WX    TMP DP  RH WIND       PRES   REMARKS
WAUSAU         CLOUDY    67  65  93 SE6       30.06S
MOSINEE        CLOUDY    64  64 100 E3        30.09R FOG
MARSHFIELD     PTCLDY    67  63  87 E6        30.06S FOG
STEVENS POINT  CLOUDY    64  64  99 CALM      30.07S FOG
WAUPACA        MOCLDY    67  67  98 CALM      30.08R FOG
WAUTOMA        NOT AVBL
WISC RAPIDS    MOCLDY    68  64  87 SE3       30.07S
CAMP DOUGLAS   NOT AVBL
$$

WIZ011>013-019>022-031-037>040-048>050-050800-
NORTHEAST WISCONSIN

CITY           SKY/WX    TMP DP  RH WIND       PRES   REMARKS
ANTIGO         CLOUDY    64  64 100 SE6       30.09F FOG
SHAWANO        NOT AVBL
OCONTO         PTCLDY    60  60 100 CALM      30.06S
STURGEON BAY   CLOUDY    66  63  88 CALM      30.08F VSB 1/2
GREEN BAY      FOG       61  60  97 W3        30.07S VSB 1/4
MANITOWOC      NOT AVBL
APPLETON       PTCLDY    64  64 100 CALM      30.06R FOG
CLINTONVILLE   CLOUDY    63  63 100 CALM      30.07S FOG
OSHKOSH        MOCLDY    65  63  93 S3        30.06S
$$

WIZ032>034-041-042-053>061-050800-
SOUTHWEST WISCONSIN

CITY           SKY/WX    TMP DP  RH WIND       PRES   REMARKS
LA CROSSE      LGT RAIN  76  72  87 E5        30.01R
SPARTA         PTCLDY    70  67  90 CALM      30.03S
VIROQUA        CLOUDY    72  72 100 SE6       30.05R
BOSCOBEL       MOCLDY    74  72  93 CALM      30.02R FOG
PRAIRIE DU CHI LGT RAIN  73  71  92 E6        30.01S
PLATTEVILLE    MOCLDY    73  72  95 E8        30.03F
$$

WIZ056-057-062-063-064-067-068-050800-
SOUTH CENTRAL WISCONSIN

CITY           SKY/WX    TMP DP  RH WIND       PRES   REMARKS
REEDSBURG      CLEAR     69  68  97 CALM      30.04S
BARABOO/DELLS  CLEAR     69  65  89 SE6       30.05S FOG
LONE ROCK      PTCLDY    72  70  93 E7        30.03F
MINERAL POINT  PTCLDY    73  72  94 SE7       30.05S FOG
MADISON        PTCLDY    68  65  90 S6        30.05S
MIDDLETON      MOCLDY    70  68  93 SE5       30.06S
WATERTOWN      CLEAR     65  65 100 CALM      30.06R
MONROE         PTCLDY    68  66  94 E5        30.06S FOG
JANESVILLE     PTCLDY    68  64  88 E3        30.05S FOG
$$

WIZ051-052-058>065-066-070>072-050800-
SOUTHEAST WISCONSIN

CITY           SKY/WX    TMP DP  RH WIND       PRES   REMARKS
MILWAUKEE      FOG       66  65  96 S5        30.06S VSB 1/2
WAUKESHA         N/A     63  63 100 CALM      30.09R FOG
MILWAUKEE/TIMM CLOUDY    64  63  94 S3        30.07S FOG
RACINE         PTCLDY    67  64  90 NE3       30.08S
BURLINGTON     MOCLDY    64  64  97 CALM      30.07S FOG
KENOSHA        PTCLDY    66  65  96 NE3       30.06F
FOND DU LAC    MOCLDY    64  64 100 S3        30.06F
SHEBOYGAN      FOG       64  64 100 SW5       30.06F VSB 1/2
WEST BEND      FOG       63  63 100 CALM      30.07S VSB 1/4
JUNEAU         MOCLDY    65  64  95 CALM      30.07F FOG
$$

LSZ147-162-050800-
LAKE SUPERIOR

STATION/POSITION TIME  TEMP    WIND        PRES    WAVE
                       AIR SEA DIR/SP/G            HT/PER
                 (UTC) (F)     (DEG/KT/KT) (MB)    (FT/S)
W MID LAKE BUOY  0550   63 57  140/  8/ 10 1016.1R   1/ 4
DEVILS ISLAND    0600   66      10/  2/  3 1015.6R
PORT WING        0640   59     160/  2/  2 1015.2S
SAXON HARBOR     0640   74     190/  5/ 10 1015.2S
$$

LMZ867-665-643>646-050800-
LAKE MICHIGAN

STATION/POSITION TIME  TEMP    WIND        PRES    WAVE
                       AIR SEA DIR/SP/G            HT/PER
                 (UTC) (F)     (DEG/KT/KT) (MB)    (FT/S)
CHAMBERS ISLAND  0600   66      40/  2/  3 1017.9S
S GREEN BAY BUOY 0630   66 67  300/  2/  2 1019.3F
N MID LAKE BUOY  0550   68 67  120/  6/  6 1017.1R   0
NORTHPORT PIER   0600   67      CALM  /  3 1017.6S
SISTER BAY       0611   65        CALM       N/A
ALGOMA LAKESHORE 0614          320/  4/  5   N/A
KEWAUNEE LAKESHO 0600   65     290/  4/  5 1017.0R
SHEBOYGAN LAKESH 0600   63     150/  2/  3 1018.3R
PORT WASHINGTON  0600   61      CALM  /  2 1018.6F
ATWATER BUOY     0600   60 59  360/  2/  2 1019.4F
MILWAUKEE LAKESH 0610   63      40/  3/  3   N/A
S MID LAKE BUOY  0550   69 71  140/  2/  4 1017.7R   1
KENOSHA   LAKESH 0600   65      50/  1/  2 1017.9S
$$

TC  - TEMPERATURE IN CELSIUS
VSB - VISIBILITY IN STATUTE MILES
WCI - WIND CHILL INDEX
HX  - HEAT INDEX




USA.gov is the U.S. government's official web portal to all federal, state and local government web resources and services.